World > North America > United States > Ohio

Kelleys Island, Ohio Regional Weather

Lat: 41.60N, Lon: 82.71W
Wx Zone: OHZ009Web Search

Helpful Tip: Type the letters wx in the search engine next time you need to find us.

Feedback
Kelleys Island Weather Map
UTC Time: 2/26/2021, 04:06
Your Time:

Kelleys Island, OH Regional Weather

Expires:202102260500;;127188
ASUS41 KCLE 260402
RWRCLE
OHIO REGIONAL WEATHER ROUNDUP
NATIONAL WEATHER SERVICE CLEVELAND, OH
1100 PM EST THU FEB 25 2021

NOTE: "FAIR" INDICATES FEW OR NO CLOUDS BELOW 12,000 FEET WITH NO
SIGNIFICANT WEATHER AND/OR OBSTRUCTIONS TO VISIBILITY.


OHZ009>014-019>023-028>033-038-089-260500-
   NORTHEAST OHIO
  
CITY           SKY/WX    TMP DP  RH WIND       PRES   REMARKS
CLE-HOPKINS    MOCLDY    32  25  75 SW7       30.30S WCI  26          
CLE-LAKEFRONT  MOCLDY    36  26  67 SW13      30.32R                  
CUY CO. ARPT   PTCLDY    32  25  74 W9        30.30S WCI  24          
LORAIN-ELYRIA  MOCLDY    31  25  78 SW5       30.33R WCI  26          
ASHTABULA      MOCLDY    32  22  66 SW7       30.30S WCI  26          
AKRON-CANTON   MOCLDY    31  22  69 W6        30.31S WCI  25          
WOOSTER        MOCLDY    30  24  78 SW5       30.32S WCI  25          
MANSFIELD      MOCLDY    33  25  72 W6        30.31S WCI  28          
YOUNGSTOWN     MOCLDY    29  20  69 SW7       30.30S WCI  22          
$$


SKY/WX - Weather  TMP - Temperature  DP - Dew Point  RH - Relative Humidity
WIND - Wind Direction/Speed PRES - Barometric Pressure VSB - Visibility
WCI - Wind Chill Index E13G22 Wind - East Wind 13 mph/Gusts of 22 mph